Saint Bonnet de Bellac- Haute Vienne - France
Donnes mto: mardi, 31/07/2012
Date Horaire Temp. E. Hum. E. P.atmo. Pluie Vent Direction Direction Ensoleilleme Solaire P. de rose Temp au vent Rafales
31/07/2012 00:00 16,6 C 80 % 1019,8 hPa 0,0 mm 0,0 km/h (0 Bft) O-SO 247 0 min 0 W/m 13,1 C 16,6 C 0,0 km/h (0 Bft)
31/07/2012 00:10 16,4 C 81 % 1019,8 hPa 0,0 mm 0,0 km/h (0 Bft) SO 225 0 min 0 W/m 13,1 C 16,4 C 0,0 km/h (0 Bft)
31/07/2012 00:20 16,3 C 82 % 1019,7 hPa 0,0 mm 1,8 km/h (1 Bft) SO 225 0 min 0 W/m 13,2 C 16,3 C 4,0 km/h (1 Bft)
31/07/2012 00:30 16,1 C 82 % 1019,7 hPa 0,0 mm 0,0 km/h (0 Bft) O-SO 247 0 min 0 W/m 13,0 C 16,1 C 1,4 km/h (1 Bft)
31/07/2012 00:40 16,1 C 82 % 1019,7 hPa 0,0 mm 0,0 km/h (0 Bft) S-SO 202 0 min 0 W/m 13,0 C 16,1 C 0,0 km/h (0 Bft)
31/07/2012 00:50 15,9 C 83 % 1019,7 hPa 0,0 mm 1,4 km/h (1 Bft) SO 225 0 min 0 W/m 13,0 C 15,9 C 1,4 km/h (1 Bft)
31/07/2012 01:00 15,9 C 84 % 1019,5 hPa 0,0 mm 2,2 km/h (1 Bft) SO 225 0 min 0 W/m 13,2 C 15,9 C 4,3 km/h (1 Bft)
31/07/2012 01:10 15,9 C 84 % 1019,5 hPa 0,0 mm 1,4 km/h (1 Bft) S-SO 202 0 min 0 W/m 13,2 C 15,9 C 4,0 km/h (1 Bft)
31/07/2012 01:20 15,8 C 84 % 1019,5 hPa 0,0 mm 2,5 km/h (1 Bft) S-SO 202 0 min 0 W/m 13,1 C 15,8 C 6,1 km/h (2 Bft)
31/07/2012 01:30 15,8 C 84 % 1019,5 hPa 0,0 mm 1,8 km/h (1 Bft) SO 225 0 min 0 W/m 13,1 C 15,8 C 4,3 km/h (1 Bft)
31/07/2012 01:40 15,7 C 85 % 1019,6 hPa 0,0 mm 0,7 km/h (0 Bft) S-SO 202 0 min 0 W/m 13,2 C 15,7 C 3,6 km/h (1 Bft)
31/07/2012 01:50 15,6 C 85 % 1019,6 hPa 0,0 mm 2,9 km/h (1 Bft) SO 225 0 min 0 W/m 13,1 C 15,6 C 4,0 km/h (1 Bft)
31/07/2012 02:00 15,6 C 85 % 1019,4 hPa 0,0 mm 2,9 km/h (1 Bft) S-SO 202 0 min 0 W/m 13,1 C 15,6 C 6,1 km/h (2 Bft)
31/07/2012 02:10 15,6 C 85 % 1019,6 hPa 0,0 mm 2,2 km/h (1 Bft) SO 225 0 min 0 W/m 13,1 C 15,6 C 4,0 km/h (1 Bft)
31/07/2012 02:20 15,5 C 86 % 1019,6 hPa 0,0 mm 0,0 km/h (0 Bft) O-SO 247 0 min 0 W/m 13,2 C 15,5 C 0,0 km/h (0 Bft)
31/07/2012 02:30 15,3 C 86 % 1019,6 hPa 0,0 mm 0,7 km/h (0 Bft) O-SO 247 0 min 0 W/m 13,0 C 15,3 C 3,6 km/h (1 Bft)
31/07/2012 02:40 15,2 C 86 % 1019,4 hPa 0,0 mm 0,0 km/h (0 Bft) SO 225 0 min 0 W/m 12,9 C 15,2 C 0,0 km/h (0 Bft)
31/07/2012 02:50 15,1 C 87 % 1019,2 hPa 0,0 mm 0,0 km/h (0 Bft) O-SO 247 0 min 0 W/m 13,0 C 15,1 C 0,0 km/h (0 Bft)
31/07/2012 03:02 14,9 C 87 % 1019,3 hPa 0,0 mm 0,4 km/h (0 Bft) SO 225 0 min 0 W/m 12,8 C 14,9 C 0,4 km/h (0 Bft)
31/07/2012 03:10 14,9 C 88 % 1019,4 hPa 0,0 mm 1,4 km/h (1 Bft) SO 225 0 min 0 W/m 12,9 C 14,9 C 3,6 km/h (1 Bft)
31/07/2012 03:20 14,8 C 89 % 1019,5 hPa 0,0 mm 0,0 km/h (0 Bft) SO 225 0 min 0 W/m 13,0 C 14,8 C 0,0 km/h (0 Bft)
31/07/2012 03:30 14,9 C 89 % 1019,5 hPa 0,0 mm 0,7 km/h (0 Bft) SO 225 0 min 0 W/m 13,1 C 14,9 C 3,2 km/h (1 Bft)
31/07/2012 03:40 14,9 C 89 % 1019,5 hPa 0,0 mm 0,0 km/h (0 Bft) S-SO 202 0 min 0 W/m 13,1 C 14,9 C 0,0 km/h (0 Bft)
31/07/2012 03:50 14,8 C 88 % 1019,5 hPa 0,0 mm 0,0 km/h (0 Bft) SO 225 0 min 0 W/m 12,8 C 14,8 C 0,0 km/h (0 Bft)
31/07/2012 04:00 14,8 C 88 % 1019,5 hPa 0,0 mm 0,0 km/h (0 Bft) S-SO 202 0 min 0 W/m 12,8 C 14,8 C 0,0 km/h (0 Bft)
31/07/2012 04:10 14,8 C 88 % 1019,6 hPa 0,0 mm 0,0 km/h (0 Bft) S-SO 202 0 min 0 W/m 12,8 C 14,8 C 0,0 km/h (0 Bft)
31/07/2012 04:20 14,8 C 88 % 1019,5 hPa 0,0 mm 0,0 km/h (0 Bft) S-SO 202 0 min 0 W/m 12,8 C 14,8 C 0,0 km/h (0 Bft)
31/07/2012 04:30 14,8 C 89 % 1019,4 hPa 0,0 mm 0,0 km/h (0 Bft) S 180 0 min 0 W/m 13,0 C 14,8 C 0,0 km/h (0 Bft)
31/07/2012 04:40 14,8 C 89 % 1019,4 hPa 0,0 mm 0,0 km/h (0 Bft) S-SO 202 0 min 0 W/m 13,0 C 14,8 C 0,0 km/h (0 Bft)
31/07/2012 04:50 14,9 C 90 % 1019,3 hPa 0,0 mm 0,0 km/h (0 Bft) SO 225 0 min 0 W/m 13,3 C 14,9 C 0,0 km/h (0 Bft)
31/07/2012 05:00 14,9 C 90 % 1019,3 hPa 0,0 mm 2,2 km/h (1 Bft) S-SO 202 0 min 0 W/m 13,3 C 14,9 C 4,0 km/h (1 Bft)
31/07/2012 05:10 15,1 C 91 % 1019,2 hPa 0,0 mm 0,0 km/h (0 Bft) SO 225 0 min 0 W/m 13,6 C 15,1 C 0,0 km/h (0 Bft)
31/07/2012 05:20 15,2 C 91 % 1019,3 hPa 0,0 mm 0,7 km/h (0 Bft) S-SO 202 0 min 0 W/m 13,7 C 15,2 C 2,9 km/h (1 Bft)
31/07/2012 05:30 15,3 C 91 % 1019,3 hPa 0,0 mm 0,7 km/h (0 Bft) SO 225 0 min 0 W/m 13,8 C 15,3 C 0,7 km/h (0 Bft)
31/07/2012 05:40 15,3 C 91 % 1019,3 hPa 0,0 mm 0,0 km/h (0 Bft) SO 225 0 min 0 W/m 13,8 C 15,3 C 0,0 km/h (0 Bft)
31/07/2012 05:50 15,3 C 91 % 1019,3 hPa 0,0 mm 0,0 km/h (0 Bft) SO 225 0 min 0 W/m 13,8 C 15,3 C 0,0 km/h (0 Bft)
31/07/2012 06:00 15,3 C 91 % 1019,2 hPa 0,0 mm 0,0 km/h (0 Bft) SO 225 0 min 0 W/m 13,8 C 15,3 C 1,4 km/h (1 Bft)
31/07/2012 06:10 15,3 C 91 % 1019,1 hPa 0,0 mm 0,0 km/h (0 Bft) SO 225 0 min 0 W/m 13,8 C 15,3 C 0,0 km/h (0 Bft)
31/07/2012 06:20 15,3 C 91 % 1019,0 hPa 0,0 mm 0,0 km/h (0 Bft) O-SO 247 0 min 0 W/m 13,8 C 15,3 C 0,0 km/h (0 Bft)
31/07/2012 06:30 15,3 C 92 % 1019,2 hPa 0,0 mm 5,0 km/h (1 Bft) S-SO 202 0 min 0 W/m 14,0 C 15,3 C 8,3 km/h (2 Bft)
31/07/2012 06:40 15,2 C 91 % 1019,2 hPa 0,0 mm 0,0 km/h (0 Bft) O-SO 247 0 min 0 W/m 13,7 C 15,2 C 0,0 km/h (0 Bft)
31/07/2012 06:50 15,0 C 91 % 1019,1 hPa 0,0 mm 1,4 km/h (1 Bft) S-SO 202 0 min 0 W/m 13,5 C 15,0 C 4,3 km/h (1 Bft)
31/07/2012 07:00 14,8 C 91 % 1019,2 hPa 0,0 mm 0,0 km/h (0 Bft) SO 225 0 min 0 W/m 13,3 C 14,8 C 0,0 km/h (0 Bft)
31/07/2012 07:10 14,7 C 91 % 1019,3 hPa 0,0 mm 0,0 km/h (0 Bft) SO 225 0 min 0 W/m 13,2 C 14,7 C 0,0 km/h (0 Bft)
31/07/2012 07:20 14,6 C 91 % 1019,3 hPa 0,0 mm 0,0 km/h (0 Bft) O-SO 247 0 min 0 W/m 13,1 C 14,6 C 0,0 km/h (0 Bft)
31/07/2012 07:30 14,6 C 91 % 1019,4 hPa 0,0 mm 0,0 km/h (0 Bft) SO 225 0 min 0 W/m 13,1 C 14,6 C 0,0 km/h (0 Bft)
31/07/2012 07:40 14,6 C 91 % 1019,5 hPa 0,0 mm 0,4 km/h (0 Bft) SO 225 0 min 0 W/m 13,1 C 14,6 C 2,9 km/h (1 Bft)
31/07/2012 07:50 14,8 C 92 % 1019,6 hPa 0,0 mm 0,0 km/h (0 Bft) SO 225 0 min 0 W/m 13,5 C 14,8 C 0,0 km/h (0 Bft)
31/07/2012 08:00 14,9 C 91 % 1019,6 hPa 0,0 mm 0,0 km/h (0 Bft) SO 225 0 min 0 W/m 13,4 C 14,9 C 0,0 km/h (0 Bft)
31/07/2012 08:10 14,9 C 91 % 1019,6 hPa 0,0 mm 0,7 km/h (0 Bft) SO 225 0 min 0 W/m 13,4 C 14,9 C 3,6 km/h (1 Bft)
31/07/2012 08:20 14,9 C 91 % 1019,6 hPa 0,0 mm 0,0 km/h (0 Bft) O-SO 247 0 min 0 W/m 13,4 C 14,9 C 0,0 km/h (0 Bft)
31/07/2012 08:30 15,2 C 91 % 1019,6 hPa 0,0 mm 1,4 km/h (1 Bft) S-SO 202 0 min 0 W/m 13,7 C 15,2 C 3,2 km/h (1 Bft)
31/07/2012 08:40 15,4 C 92 % 1019,5 hPa 0,0 mm 2,2 km/h (1 Bft) S-SO 202 0 min 0 W/m 14,1 C 15,4 C 4,0 km/h (1 Bft)
31/07/2012 08:50 15,5 C 91 % 1019,7 hPa 0,0 mm 2,2 km/h (1 Bft) SO 225 0 min 0 W/m 14,0 C 15,5 C 2,9 km/h (1 Bft)
31/07/2012 09:00 15,8 C 90 % 1019,7 hPa 0,0 mm 0,7 km/h (0 Bft) SO 225 0 min 0 W/m 14,2 C 15,8 C 0,7 km/h (0 Bft)
31/07/2012 09:10 16,0 C 87 % 1019,8 hPa 0,0 mm 2,5 km/h (1 Bft) SO 225 0 min 0 W/m 13,8 C 16,0 C 2,9 km/h (1 Bft)
31/07/2012 09:20 16,3 C 86 % 1019,8 hPa 0,0 mm 3,6 km/h (1 Bft) SO 225 0 min 0 W/m 14,0 C 16,3 C 7,2 km/h (2 Bft)
31/07/2012 09:30 16,8 C 86 % 1019,9 hPa 0,0 mm 9,0 km/h (2 Bft) S 180 0 min 0 W/m 14,4 C 16,8 C 14,4 km/h (3 Bft)
31/07/2012 09:40 17,3 C 81 % 1020,0 hPa 0,0 mm 5,8 km/h (2 Bft) S-SO 202 0 min 0 W/m 14,0 C 17,3 C 6,8 km/h (2 Bft)
31/07/2012 09:50 17,6 C 80 % 1020,0 hPa 0,0 mm 4,0 km/h (1 Bft) S 180 0 min 0 W/m 14,1 C 17,6 C 6,1 km/h (2 Bft)
31/07/2012 10:00 18,3 C 80 % 1020,0 hPa 0,0 mm 3,2 km/h (1 Bft) O-SO 247 0 min 0 W/m 14,8 C 18,3 C 6,8 km/h (2 Bft)
31/07/2012 10:10 18,8 C 77 % 1019,9 hPa 0,0 mm 0,7 km/h (0 Bft) SO 225 0 min 0 W/m 14,7 C 18,8 C 3,6 km/h (1 Bft)
31/07/2012 10:20 19,3 C 74 % 1020,0 hPa 0,0 mm 6,5 km/h (2 Bft) SO 225 0 min 0 W/m 14,5 C 19,3 C 8,6 km/h (2 Bft)
31/07/2012 10:30 19,8 C 72 % 1020,1 hPa 0,0 mm 2,9 km/h (1 Bft) O-SO 247 0 min 0 W/m 14,6 C 19,8 C 6,1 km/h (2 Bft)
31/07/2012 10:40 20,2 C 71 % 1020,1 hPa 0,0 mm 0,4 km/h (0 Bft) SO 225 0 min 0 W/m 14,8 C 20,2 C 0,4 km/h (0 Bft)
31/07/2012 10:50 20,6 C 69 % 1020,2 hPa 0,0 mm 2,2 km/h (1 Bft) SO 225 0 min 0 W/m 14,7 C 20,6 C 4,0 km/h (1 Bft)
31/07/2012 11:00 20,8 C 67 % 1020,2 hPa 0,0 mm 3,2 km/h (1 Bft) S 180 0 min 0 W/m 14,4 C 20,8 C 4,3 km/h (1 Bft)
31/07/2012 11:10 21,2 C 67 % 1020,1 hPa 0,0 mm 5,0 km/h (1 Bft) SE 135 0 min 0 W/m 14,8 C 21,2 C 10,8 km/h (2 Bft)
31/07/2012 11:20 21,7 C 65 % 1020,1 hPa 0,0 mm 2,9 km/h (1 Bft) SO 225 0 min 0 W/m 14,8 C 21,7 C 4,3 km/h (1 Bft)
31/07/2012 11:30 21,9 C 62 % 1020,1 hPa 0,0 mm 3,6 km/h (1 Bft) S 180 0 min 0 W/m 14,3 C 21,9 C 7,2 km/h (2 Bft)
31/07/2012 11:40 22,3 C 62 % 1020,0 hPa 0,0 mm 4,7 km/h (1 Bft) S-SE 157 0 min 0 W/m 14,7 C 22,3 C 10,1 km/h (2 Bft)
31/07/2012 11:50 22,8 C 60 % 1020,0 hPa 0,0 mm 1,1 km/h (1 Bft) SO 225 0 min 0 W/m 14,6 C 22,8 C 3,2 km/h (1 Bft)
31/07/2012 12:00 23,1 C 55 % 1020,0 hPa 0,0 mm 0,7 km/h (0 Bft) O-SO 247 0 min 0 W/m 13,6 C 23,1 C 4,0 km/h (1 Bft)
31/07/2012 12:10 23,5 C 53 % 1019,9 hPa 0,0 mm 1,8 km/h (1 Bft) S-SO 202 0 min 0 W/m 13,4 C 23,5 C 4,3 km/h (1 Bft)
31/07/2012 12:20 23,8 C 53 % 1019,8 hPa 0,0 mm 2,5 km/h (1 Bft) S-SO 202 0 min 0 W/m 13,6 C 23,8 C 4,3 km/h (1 Bft)
31/07/2012 12:30 23,8 C 52 % 1019,7 hPa 0,0 mm 4,7 km/h (1 Bft) S-SO 202 0 min 0 W/m 13,3 C 23,8 C 7,6 km/h (2 Bft)
31/07/2012 12:40 24,0 C 53 % 1019,6 hPa 0,0 mm 0,0 km/h (0 Bft) S-SO 202 0 min 0 W/m 13,8 C 24,0 C 0,0 km/h (0 Bft)
31/07/2012 12:50 24,3 C 51 % 1019,5 hPa 0,0 mm 1,1 km/h (1 Bft) S-SE 157 0 min 0 W/m 13,5 C 24,3 C 3,2 km/h (1 Bft)
31/07/2012 13:00 24,4 C 49 % 1019,5 hPa 0,0 mm 0,4 km/h (0 Bft) E-NE 67 0 min 0 W/m 13,0 C 24,4 C 3,2 km/h (1 Bft)
31/07/2012 13:10 24,6 C 48 % 1019,3 hPa 0,0 mm 0,0 km/h (0 Bft) SE 135 0 min 0 W/m 12,8 C 24,6 C 0,0 km/h (0 Bft)
31/07/2012 13:20 25,1 C 50 % 1019,2 hPa 0,0 mm 0,0 km/h (0 Bft) E 90 0 min 0 W/m 13,9 C 25,1 C 0,0 km/h (0 Bft)
31/07/2012 13:30 25,5 C 46 % 1019,1 hPa 0,0 mm 2,2 km/h (1 Bft) S 180 0 min 0 W/m 13,0 C 25,5 C 4,3 km/h (1 Bft)
31/07/2012 13:40 25,6 C 47 % 1019,0 hPa 0,0 mm 0,0 km/h (0 Bft) S 180 0 min 0 W/m 13,4 C 25,6 C 0,0 km/h (0 Bft)
31/07/2012 13:50 25,8 C 47 % 1018,9 hPa 0,0 mm 1,8 km/h (1 Bft) S-SO 202 0 min 0 W/m 13,6 C 25,8 C 4,3 km/h (1 Bft)
31/07/2012 14:00 26,0 C 47 % 1018,8 hPa 0,0 mm 0,4 km/h (0 Bft) E-SE 112 0 min 0 W/m 13,8 C 26,0 C 0,4 km/h (0 Bft)
31/07/2012 14:10 26,5 C 46 % 1018,6 hPa 0,0 mm 0,0 km/h (0 Bft) O-SO 247 0 min 0 W/m 13,9 C 26,5 C 0,0 km/h (0 Bft)
31/07/2012 14:20 26,9 C 44 % 1018,4 hPa 0,0 mm 2,9 km/h (1 Bft) SE 135 0 min 0 W/m 13,6 C 26,9 C 6,8 km/h (2 Bft)
31/07/2012 14:30 26,9 C 45 % 1018,3 hPa 0,0 mm 4,0 km/h (1 Bft) S-SE 157 0 min 0 W/m 13,9 C 26,9 C 4,3 km/h (1 Bft)
31/07/2012 14:40 27,2 C 44 % 1018,3 hPa 0,0 mm 0,0 km/h (0 Bft) NE 45 0 min 0 W/m 13,9 C 27,2 C 0,0 km/h (0 Bft)
31/07/2012 14:50 27,4 C 43 % 1018,2 hPa 0,0 mm 3,6 km/h (1 Bft) SE 135 0 min 0 W/m 13,7 C 27,4 C 6,5 km/h (2 Bft)
31/07/2012 15:00 27,5 C 42 % 1018,0 hPa 0,0 mm 1,8 km/h (1 Bft) E-SE 112 0 min 0 W/m 13,4 C 27,5 C 3,2 km/h (1 Bft)
31/07/2012 15:10 27,7 C 43 % 1017,9 hPa 0,0 mm 1,1 km/h (1 Bft) NE 45 0 min 0 W/m 14,0 C 27,7 C 4,3 km/h (1 Bft)
31/07/2012 15:20 28,0 C 40 % 1017,8 hPa 0,0 mm 4,7 km/h (1 Bft) S-SO 202 0 min 0 W/m 13,1 C 28,0 C 7,2 km/h (2 Bft)
31/07/2012 15:30 27,9 C 41 % 1017,7 hPa 0,0 mm 0,7 km/h (0 Bft) SO 225 0 min 0 W/m 13,4 C 27,9 C 4,3 km/h (1 Bft)
31/07/2012 15:40 28,1 C 41 % 1017,5 hPa 0,0 mm 0,0 km/h (0 Bft) SE 135 0 min 0 W/m 13,6 C 28,1 C 0,0 km/h (0 Bft)
31/07/2012 15:50 28,3 C 42 % 1017,4 hPa 0,0 mm 0,0 km/h (0 Bft) O-SO 247 0 min 0 W/m 14,1 C 28,3 C 3,6 km/h (1 Bft)
31/07/2012 16:00 28,4 C 42 % 1017,4 hPa 0,0 mm 2,9 km/h (1 Bft) S-SO 202 0 min 0 W/m 14,2 C 28,4 C 4,3 km/h (1 Bft)
31/07/2012 16:10 28,3 C 39 % 1017,2 hPa 0,0 mm 1,8 km/h (1 Bft) S-SO 202 0 min 0 W/m 13,0 C 28,3 C 1,8 km/h (1 Bft)
31/07/2012 16:20 28,9 C 40 % 1017,1 hPa 0,0 mm 0,0 km/h (0 Bft) S-SO 202 0 min 0 W/m 13,9 C 28,9 C 0,0 km/h (0 Bft)
31/07/2012 16:30 29,1 C 41 % 1016,9 hPa 0,0 mm 2,2 km/h (1 Bft) SE 135 0 min 0 W/m 14,5 C 29,1 C 3,6 km/h (1 Bft)
31/07/2012 16:40 29,3 C 40 % 1016,8 hPa 0,0 mm 2,5 km/h (1 Bft) E-SE 112 0 min 0 W/m 14,3 C 29,3 C 3,6 km/h (1 Bft)
31/07/2012 16:50 29,6 C 39 % 1016,6 hPa 0,0 mm 1,4 km/h (1 Bft) E 90 0 min 0 W/m 14,2 C 29,6 C 1,4 km/h (1 Bft)
31/07/2012 17:00 29,6 C 38 % 1016,5 hPa 0,0 mm 1,8 km/h (1 Bft) E-SE 112 0 min 0 W/m 13,8 C 29,6 C 4,0 km/h (1 Bft)
31/07/2012 17:10 29,9 C 39 % 1016,4 hPa 0,0 mm 0,0 km/h (0 Bft) E-NE 67 0 min 0 W/m 14,4 C 29,9 C 0,0 km/h (0 Bft)
31/07/2012 17:20 30,3 C 39 % 1016,2 hPa 0,0 mm 4,0 km/h (1 Bft) N-NO 337 0 min 0 W/m 14,8 C 30,3 C 4,3 km/h (1 Bft)
31/07/2012 17:30 30,5 C 39 % 1016,1 hPa 0,0 mm 2,5 km/h (1 Bft) N-NE 22 0 min 0 W/m 15,0 C 30,5 C 4,0 km/h (1 Bft)
31/07/2012 17:40 30,7 C 37 % 1015,9 hPa 0,0 mm 0,4 km/h (0 Bft) NO 315 0 min 0 W/m 14,3 C 30,7 C 3,2 km/h (1 Bft)
31/07/2012 17:50 30,9 C 36 % 1015,8 hPa 0,0 mm 2,9 km/h (1 Bft) N 360 0 min 0 W/m 14,1 C 30,9 C 4,3 km/h (1 Bft)
31/07/2012 18:00 31,2 C 36 % 1015,6 hPa 0,0 mm 2,2 km/h (1 Bft) O-NO 292 0 min 0 W/m 14,3 C 31,2 C 3,6 km/h (1 Bft)
31/07/2012 18:10 31,2 C 36 % 1015,5 hPa 0,0 mm 2,5 km/h (1 Bft) E-NE 67 0 min 0 W/m 14,3 C 31,2 C 6,5 km/h (2 Bft)
31/07/2012 18:20 31,2 C 36 % 1015,4 hPa 0,0 mm 0,0 km/h (0 Bft) E-NE 67 0 min 0 W/m 14,3 C 31,2 C 0,0 km/h (0 Bft)
31/07/2012 18:30 31,1 C 36 % 1015,2 hPa 0,0 mm 0,0 km/h (0 Bft) NE 45 0 min 0 W/m 14,2 C 31,1 C 0,0 km/h (0 Bft)
31/07/2012 18:40 31,3 C 35 % 1015,2 hPa 0,0 mm 2,9 km/h (1 Bft) N 360 0 min 0 W/m 14,0 C 31,3 C 4,3 km/h (1 Bft)
31/07/2012 18:50 31,4 C 35 % 1015,1 hPa 0,0 mm 0,0 km/h (0 Bft) N-NO 337 0 min 0 W/m 14,1 C 31,4 C 0,0 km/h (0 Bft)
31/07/2012 19:00 31,4 C 35 % 1015,0 hPa 0,0 mm 0,0 km/h (0 Bft) N 360 0 min 0 W/m 14,1 C 31,4 C 0,0 km/h (0 Bft)
31/07/2012 19:10 31,4 C 35 % 1015,0 hPa 0,0 mm 2,5 km/h (1 Bft) N-NO 337 0 min 0 W/m 14,1 C 31,4 C 7,2 km/h (2 Bft)
31/07/2012 19:20 31,4 C 36 % 1015,0 hPa 0,0 mm 0,4 km/h (0 Bft) N-NO 337 0 min 0 W/m 14,5 C 31,4 C 0,4 km/h (0 Bft)
31/07/2012 19:30 31,4 C 35 % 1014,9 hPa 0,0 mm 0,0 km/h (0 Bft) N 360 0 min 0 W/m 14,1 C 31,4 C 0,0 km/h (0 Bft)
31/07/2012 19:40 31,3 C 36 % 1014,9 hPa 0,0 mm 0,0 km/h (0 Bft) N-NE 22 0 min 0 W/m 14,4 C 31,3 C 2,9 km/h (1 Bft)
31/07/2012 19:50 31,3 C 37 % 1014,8 hPa 0,0 mm 0,4 km/h (0 Bft) N 360 0 min 0 W/m 14,8 C 31,3 C 4,0 km/h (1 Bft)
31/07/2012 20:00 31,1 C 36 % 1014,8 hPa 0,0 mm 0,0 km/h (0 Bft) N 360 0 min 0 W/m 14,2 C 31,1 C 0,0 km/h (0 Bft)
31/07/2012 20:10 30,6 C 37 % 1014,8 hPa 0,0 mm 0,4 km/h (0 Bft) N-NE 22 0 min 0 W/m 14,2 C 30,6 C 4,3 km/h (1 Bft)
31/07/2012 20:20 30,0 C 37 % 1014,7 hPa 0,0 mm 0,4 km/h (0 Bft) N-NE 22 0 min 0 W/m 13,7 C 30,0 C 0,4 km/h (0 Bft)
31/07/2012 20:30 29,1 C 39 % 1014,6 hPa 0,0 mm 0,0 km/h (0 Bft) NE 45 0 min 0 W/m 13,7 C 29,1 C 0,0 km/h (0 Bft)
31/07/2012 20:40 28,0 C 40 % 1014,5 hPa 0,0 mm 0,0 km/h (0 Bft) NE 45 0 min 0 W/m 13,1 C 28,0 C 0,0 km/h (0 Bft)
31/07/2012 20:50 27,0 C 42 % 1014,4 hPa 0,0 mm 0,0 km/h (0 Bft) NE 45 0 min 0 W/m 13,0 C 27,0 C 0,0 km/h (0 Bft)
31/07/2012 21:00 26,1 C 43 % 1014,3 hPa 0,0 mm 0,0 km/h (0 Bft) N-NE 22 0 min 0 W/m 12,5 C 26,1 C 0,0 km/h (0 Bft)
31/07/2012 21:10 25,2 C 46 % 1014,1 hPa 0,0 mm 0,0 km/h (0 Bft) N-NE 22 0 min 0 W/m 12,7 C 25,2 C 0,0 km/h (0 Bft)
31/07/2012 21:20 24,4 C 47 % 1014,0 hPa 0,0 mm 0,0 km/h (0 Bft) N-NE 22 0 min 0 W/m 12,3 C 24,4 C 0,0 km/h (0 Bft)
31/07/2012 21:30 23,6 C 48 % 1014,0 hPa 0,0 mm 0,0 km/h (0 Bft) N-NE 22 0 min 0 W/m 11,9 C 23,6 C 0,0 km/h (0 Bft)
31/07/2012 21:40 22,8 C 50 % 1013,9 hPa 0,0 mm 0,0 km/h (0 Bft) N-NE 22 0 min 0 W/m 11,8 C 22,8 C 0,0 km/h (0 Bft)
31/07/2012 21:50 22,1 C 52 % 1014,2 hPa 0,0 mm 0,0 km/h (0 Bft) N-NE 22 0 min 0 W/m 11,8 C 22,1 C 0,0 km/h (0 Bft)
31/07/2012 22:00 21,4 C 54 % 1014,2 hPa 0,0 mm 0,0 km/h (0 Bft) N-NE 22 0 min 0 W/m 11,7 C 21,4 C 0,0 km/h (0 Bft)
31/07/2012 22:10 20,8 C 55 % 1014,4 hPa 0,0 mm 0,0 km/h (0 Bft) N-NE 22 0 min 0 W/m 11,4 C 20,8 C 0,0 km/h (0 Bft)
31/07/2012 22:20 20,3 C 56 % 1014,5 hPa 0,0 mm 0,0 km/h (0 Bft) N-NE 22 0 min 0 W/m 11,2 C 20,3 C 0,0 km/h (0 Bft)
31/07/2012 22:30 19,8 C 57 % 1014,5 hPa 0,0 mm 0,0 km/h (0 Bft) N-NE 22 0 min 0 W/m 11,0 C 19,8 C 0,0 km/h (0 Bft)
31/07/2012 22:40 19,6 C 59 % 1014,4 hPa 0,0 mm 0,0 km/h (0 Bft) NE 45 0 min 0 W/m 11,4 C 19,6 C 0,0 km/h (0 Bft)
31/07/2012 22:50 19,4 C 59 % 1014,4 hPa 0,0 mm 1,8 km/h (1 Bft) NE 45 0 min 0 W/m 11,2 C 19,4 C 4,3 km/h (1 Bft)
31/07/2012 23:00 19,2 C 60 % 1014,3 hPa 0,0 mm 0,0 km/h (0 Bft) NE 45 0 min 0 W/m 11,2 C 19,2 C 0,0 km/h (0 Bft)
31/07/2012 23:10 18,9 C 61 % 1014,3 hPa 0,0 mm 0,0 km/h (0 Bft) NE 45 0 min 0 W/m 11,2 C 18,9 C 0,0 km/h (0 Bft)
31/07/2012 23:20 18,6 C 62 % 1014,3 hPa 0,0 mm 0,0 km/h (0 Bft) NE 45 0 min 0 W/m 11,2 C 18,6 C 0,0 km/h (0 Bft)
31/07/2012 23:30 18,4 C 63 % 1014,1 hPa 0,0 mm 0,0 km/h (0 Bft) NE 45 0 min 0 W/m 11,2 C 18,4 C 0,0 km/h (0 Bft)
31/07/2012 23:40 18,1 C 64 % 1014,0 hPa 0,0 mm 0,0 km/h (0 Bft) NE 45 0 min 0 W/m 11,2 C 18,1 C 0,0 km/h (0 Bft)
31/07/2012 23:50 17,9 C 65 % 1013,9 hPa 0,0 mm 0,0 km/h (0 Bft) NE 45 0 min 0 W/m 11,2 C 17,9 C 0,0 km/h (0 Bft)
_ Min-Heure 07:40 19:30 23:50 - 23:50 - - - - 22:30 07:40 23:50
Minimum _ 14,6 C 35 % 1013,9 hPa - 0,0 km/h (0 Bft) - - - - 11,0 C 14,6 C 0,0 km/h (0 Bft)
_ Max-Heure 19:30 08:40 11:00 23:50 09:30 - - 23:50 23:50 17:30 19:30 09:30
Maximum _ 31,4 C 92 % 1020,2 hPa 0,0 mm 9,0 km/h
S (2 Bft)
- - 0 min 0 W/m 15,0 C 31,4 C 14,4 km/h
S (3 Bft)
Moyenne _ 21,4 C 65 % 1017,9 hPa #0,0 mm 1,2 km/h (1 Bft) SO - #0 min. 0 W/m 13,4 C 21,4 C 2,4 km/h (1 Bft)
Saint Bonnet de Bellac- Haute Vienne - France